Regional Weather Roundup
Issued by NWS Grand Forks, ND

Home | Current Version | Previous Version | Text Only | Print | Product List | Glossary Off
Versions: 1 2 3 4 5 6 7 8 9 10 11 12 13 14 15 16 17 18 19 20 21 22 23 24 25 26 27 28 29 30 31 32 33 34 35 36 37 38 39 40 41 42 43 44 45 46 47 48 49 50

220
ASUS43 KFGF 182131
RWRFGF
PRAIRIE TO PINES  WEATHER ROUNDUP
NATIONAL WEATHER SERVICE EASTERN NORTH DAKOTA/GRAND FORKS ND
400 PM CDT WED OCT 18 2017

 **SATELLITE DATA USED TO AUGMENT SKY COVER AT AUTOMATED STATIONS**
 *****  WEATHER ACROSS EASTERN NORTH DAKOTA  *****

CITY           SKY/WX    TMP DP  RH WIND       PRES   REMARKS
GRAND FORKS    FAIR      61  14  16 W23G35    29.80S
GRAND FRKS AFB FAIR      60  12  15 W26       29.81R
DEVILS LAKE    FAIR      57  17  21 W30G39    29.83R
FARGO          FAIR      61  14  16 W25G33    29.87R
WAHPETON ARPT  NOT AVBL
$$

 ***** WEATHER ACROSS CENTRAL AND WESTERN NORTH DAKOTA  *****

CITY           SKY/WX    TMP DP  RH WIND       PRES   REMARKS
BISMARCK       FAIR      61  21  21 W16       29.97F
MINOT          FAIR      58  18  21 W18G30    29.88S
JAMESTOWN      FAIR      59  19  21 W21G28    29.91S
MINOT AFB      FAIR      56  18  22 W28G37    29.85S
GARRISON         N/A     56  20  24 W23G35    29.92F
WILLISTON      FAIR      55  22  27 W17G26    29.93F
DICKINSON      FAIR      59  24  26 W15       29.96F
HETTINGER      FAIR      58  21  24 W13       30.00F
$$

 *****  OTHER AIRPORT OBSERVATIONS IN OUR AREA  *****

CITY           SKY/WX    TMP DP  RH WIND       PRES   REMARKS
WALHALLA       FAIR     N/A N/A N/A W26G39    29.73R
GRAFTON AIRPOR FAIR      59  16  18 W31G40    29.79R
VALLEY CITY AR FAIR      57  16  19 W26G35    29.92R
CANDO          FAIR      55  10  16 W33G46    29.83R
CAVALIER APRT  FAIR      59  12  15 W25G37    29.74R
GWINNER        CLEAR     59  18  20 W17G25    29.95R
SHEYENNE NWR     N/A     61  16  17 NW17      29.95S
ROLLA          FAIR      54  10  17 W26G44    29.77R
 ***** THE ABOVE OBSERVATIONS ARE NON NWS ARE NOT QUALITY
       CONTROLLED AND MAY MIS-REPORT RAIN FOR SNOW...
$$

  *****  WEATHER ACROSS NORTHERN MINNESOTA  *****

CITY           SKY/WX    TMP DP  RH WIND       PRES   REMARKS
FLAG ISLAND    FAIR      57  16  19 W24G41    29.59R
WARROAD        FAIR      57  18  21 W21G32    29.66S
ROSEAU         FAIR      61   9  12 W21G29    29.68R
HALLOCK        FAIR      61  -6   6 W31G39    29.72R
THF RVR FALLS  FAIR      58  17  20 W21G33    29.79R
BAUDETTE       FAIR      58  15  18 W26G41    29.66S
WASKISH        FAIR      55  30  38 W16G25    29.73R
CROOKSTON      FAIR      61  16  17 W29G35    29.82R
STEPHEN NDAWN    N/A     59  12  15 W24         N/A
GREENBUSH NDAW   N/A     59  12  15 W24         N/A
$$
  *****  WEATHER ACROSS CENTRAL AND WEST MINNESOTA  *****

CITY           SKY/WX    TMP DP  RH WIND       PRES   REMARKS
FOSSTON        FAIR      59  12  15 W18G29    29.82R
BEMIDJI        FAIR      58  15  18 W24G32    29.78S
PARK RAPIDS    FAIR      61  17  18 W21G33    29.82R
ELBOW LAKE     FAIR      58  25  27 NW17      29.92S
WADENA         FAIR      59  25  27 W14G20    29.86R
DETROIT LAKES  FAIR      59  12  15 W22G29    29.88R
MOORHEAD       FAIR      61  10  13 W22       29.90R
FERGUS FALLS   FAIR      59  23  25 NW17G28   29.90R
MORRIS MN      FAIR      59  27  29 W14G21    29.94R
STAPLES        FAIR      57  18  21 W16G23    29.86R
$$
  *****  WEATHER ELSEWHERE ACROSS MINNESOTA  *****

CITY           SKY/WX    TMP DP  RH WIND       PRES   REMARKS
DULUTH         FAIR      64  18  17 W29G37    29.71R
INTRNTL FALLS  FAIR      60  18  19 W20G32    29.64S
ELY            FAIR      63  12  14 W21G26    29.66R
CLOQUET        FAIR      64  14  14 W13G23    29.75R
WHEATON        FAIR      61  19  20 W16       29.96R
BRAINERD       FAIR      63  14  15 W22G30    29.83R
HIBBING        FAIR      61  15  16 W16G25    29.72R
ALEXANDRIA     FAIR      60  24  25 W14       29.91R
SAINT CLOUD    FAIR      66  31  27 NW18      29.85R
MINNEAPOLIS    FAIR      72  40  31 W14       29.83F
$$

  *****  WEATHER ACROSS SOUTH DAKOTA  *****

CITY           SKY/WX    TMP DP  RH WIND       PRES   REMARKS
SIOUX FALLS    PTSUNNY   72  37  28 N14G23    29.96R
BROOKINGS      FAIR      65  29  25 N10       29.98R
WATERTOWN      FAIR      60  29  30 NW15      29.97R
HURON          FAIR      65  21  18 N14       30.01R
SISSETON         N/A     62  26  25 W15       29.95R
ABERDEEN       FAIR      61  27  27 W10       30.00S
MITCHELL       FAIR      69  25  19 N14       30.01R
PIERRE         FAIR      63  22  20 NW12      30.03R
MOBRIDGE       FAIR      64  22  20 NW9       29.99S
RAPID CITY     FAIR      64  25  22 SE12      30.05F
$$

  *****  SOME WEATHER IN NEARBY STATES *****

CITY           SKY/WX    TMP DP  RH WIND       PRES   REMARKS
GLASGOW MT     FAIR      59  23  25 SW13      29.89F
GREAT FALLS MT CLOUDY    63  30  28 SW25G36   29.86F
CHEYENNE WY    FAIR      72   9   8 NW7       30.15F
SCOTTSBLUFF NE FAIR      73  25  16 E10       30.08F
OMAHA NE       FAIR      76  48  37 VRB5      29.92R
DES MOINES IA  FAIR      75  49  39 S16       29.92S
DAVENPORT IA   FAIR      73  44  35 S15       30.00F
CHICAGO IL     FAIR      70  41  34 SW18G28   30.02F
EAU CLAIRE WI  FAIR      71  48  43 W13G26    29.82R
LA CROSSE WI   FAIR      75  47  36 SW17      29.85R
$$

  *****  SOME NATIONAL WEATHER *****

CITY           SKY/WX    TMP DP  RH WIND       PRES   REMARKS
LA GUARDIA NY  FAIR      72  45  37 S9        30.24F
RALEIGH NC     FAIR      67  36  31 E5        30.32F
ATLANTA GA     FAIR      70  40  33 E9        30.26F
NEW ORLEANS LA FAIR      79  61  53 NE10      30.14S
OKLAHOMA CITY  PTSUNNY   80  43  26 S17       30.01F
ALBUQUERQUE NM CLOUDY    74  10   8 VRB3      30.17F
SALT LAKE CITY FAIR      69  33  26 NW7       30.15F
LOS ANGELES CA FAIR      80  56  43 W15       29.93F
BOISE ID       FAIR      74  29  19 SE9       30.03F
SEATTLE WA     CLOUDY    58  55  90 S16       29.69F
$$

*** WEATHER ACROSS MANITOBA...SASKATCHEWAN AND ONTARIO ***
                ***ONTARIO***

CITY           SKY/WX    TMP DP  RH WIND       PRES   REMARKS
GERALDTON      CLOUDY    61  45  55 S17G35    29.41F
THUNDER BAY    MOSUNNY   70  36  28 SW24G32   29.50R
SIOUX LOOKOUT  MOSUNNY   57  25  28 W18G33    29.45R
TORONTO        SUNNY     68  43  40 SW15G23   30.13S
BIG TROUT LK   CLOUDY    54  34  47 SW23G39   29.09R
PICKLE LAKE    MOSUNNY   55  28  35 W26G47    29.29R
DRYDEN         SUNNY     57  18  21 W37G51    29.48R
KENORA         SUNNY     55  12  18 W30G45    29.53R
$$
                *** MANITOBA***

CITY           SKY/WX    TMP DP  RH WIND       PRES   REMARKS
BRANDON        SUNNY     55   9  15 W39G53    29.66R
DAUPHIN        SUNNY     55  16  21 W40G58    29.49R
ISLAND LAKE    LGT RAIN N/A N/A N/A MISG        N/A
PILOT MOUND      N/A     54  10  17 W21G37      N/A
THE PAS        PTSUNNY   39  32  75 W26G40    29.29R
THOMPSON       LGT SNOW  34  32  93 NW13G20   28.99R FOG     WCI  25
WINNIPEG       SUNNY     57  10  15 W40G52    29.59R
LYNN LAKE      LGT SNOW  32  32 100 N10G17    29.18R WCI  24
CHURCHILL      SNOW      32  32 100 E37G51    29.15R VSB 3/8 WCI  16
GILLAM         CLOUDY    37  36  93 NE8       28.79R
$$
                ***SASKATCHEWAN***

CITY           SKY/WX    TMP DP  RH WIND       PRES   REMARKS
ESTEVAN        MOSUNNY   54  16  22 W23G35    29.84S
KINDERSLEY     PTSUNNY   50  16  25 W10G29    29.78F
LLOYDMINSTER   PTSUNNY   46  21  36 W10       29.71S
PRINCE ALBERT  PTSUNNY   48  27  43 W28G38    29.63R
REGINA         MOSUNNY   54  12  19 W32G41    29.80R
YORKTON        SUNNY     52  12  20 W38G49    29.60R
N. BATTLEFORD  SUNNY     48  14  25 NW24G31   29.73S
LA RONGE       LGT RAIN  37  32  81 W26G37    29.50R
SASKATOON      MOSUNNY   52  12  20 W25G35    29.73R
SWIFT CURRENT  SUNNY     50  16  25 W13       29.83F
$$
NOTE: THESE ARE AUTOMATED STATIONS WITH LIMITED QUALITY CONTROL
      "FAIR" INDICATES FEW OR NO CLOUDS BELOW 12,000 FEET WITH NO
      SIGNIFICANT WEATHER AND/OR OBSTRUCTIONS TO VISIBILITY.
      SKY/WX - SKY CONDITION AND SIGNIFICANT WEATHER.
      TMP - AIR TEMPERATURE.    DP   - DEWPOINT TEMPERATURE.
      RH  - RELATIVE HUMIDITY.  PRES - PRESSURE.
      HX  - HEAT INDEX.         WCI  - WIND CHILL INDEX.
$




USA.gov is the U.S. government's official web portal to all federal, state and local government web resources and services.